H1 CPF  2  SGF 2024  1 10  2  010 01 etalon1   
H2  8900103  525    19751 2024  1  9  0  0  0 2024  1 13 23 45  0   900 1 1  0 0 0 1
H9
10 0 60320  82800.00000  0  -2612502.113 -11210924.025 -22717431.377
10 0 60320  83700.00000  0    206399.144 -10964185.305 -22992921.542
10 0 60320  84600.00000  0   3041144.338 -10922145.586 -22820116.745
10 0 60320  85500.00000  0   5821843.354 -11083113.352 -22202759.681
10 0 60321      0.00000  0   8480544.202 -11433261.056 -21153255.961
10 0 60321    900.00000  0  10953817.075 -11947266.687 -19692402.044
10 0 60321   1800.00000  0  13185144.622 -12589455.597 -17848951.188
10 0 60321   2700.00000  0  15127020.427 -13315391.788 -15659027.961
10 0 60321   3600.00000  0  16742670.562 -14073849.912 -13165404.466
10 0 60321   4500.00000  0  18007330.262 -14809082.711 -10416653.743
10 0 60321   5400.00000  0  18909025.763 -15463287.782  -7466197.774
10 0 60321   6300.00000  0  19448831.923 -15979170.317  -4371269.010
10 0 60321   7200.00000  0  19640599.030 -16302493.643  -1191805.604
10 0 60321   8100.00000  0  19510162.849 -16384511.867   2010698.694
10 0 60321   9000.00000  0  19094072.822 -16184184.427   5174368.629
10 0 60321   9900.00000  0  18437893.952 -15670080.152   8238124.046
10 0 60321  10800.00000  0  17594153.655 -14821892.987  11142837.858
10 0 60321  11700.00000  0  16620018.867 -13631507.428  13832454.883
10 0 60321  12600.00000  0  15574800.512 -12103568.642  16255051.883
10 0 60321  13500.00000  0  14517387.760 -10255533.790  18363820.351
10 0 60321  14400.00000  0  13503717.309  -8117201.655  20117954.975
10 0 60321  15300.00000  0  12584382.357  -5729737.503  21483432.206
10 0 60321  16200.00000  0  11802479.144  -3144231.576  22433665.121
10 0 60321  17100.00000  0  11191779.913   -419848.164  22950022.582
10 0 60321  18000.00000  0  10775308.592   2378362.039  23022202.690
10 0 60321  18900.00000  0  10564378.776   5181898.705  22648452.632
10 0 60321  19800.00000  0  10558135.623   7921399.717  21835629.334
10 0 60321  20700.00000  0  10743622.694  10529275.941  20599097.767
10 0 60321  21600.00000  0  11096373.223  12942285.124  18962466.420
10 0 60321  22500.00000  0  11581504.116  15103938.653  16957162.311
10 0 60321  23400.00000  0  12155268.870  16966641.464  14621850.959
10 0 60321  24300.00000  0  12767006.376  18493474.666  12001709.937
10 0 60321  25200.00000  0  13361405.595  19659544.431   9147567.898
10 0 60321  26100.00000  0  13880990.257  20452839.113   6114924.258
10 0 60321  27000.00000  0  14268718.439  20874556.138   2962867.881
10 0 60321  27900.00000  0  14470586.128  20938882.520   -247084.080
10 0 60321  28800.00000  0  14438120.987  20672237.500  -3452203.499
10 0 60321  29700.00000  0  14130658.041  20112008.248  -6589799.186
10 0 60321  30600.00000  0  13517297.911  19304831.932  -9598468.663
10 0 60321  31500.00000  0  12578460.051  18304498.717 -12419326.538
10 0 60321  32400.00000  0  11306962.703  17169566.026 -14997182.595
10 0 60321  33300.00000  0   9708581.870  15960787.249 -17281643.924
10 0 60321  34200.00000  0   7802063.119  14738467.183 -19228117.244
10 0 60321  35100.00000  0   5618585.646  13559858.297 -20798690.199
10 0 60321  36000.00000  0   3200701.692  12476709.933 -21962873.559
10 0 60321  36900.00000  0    600796.081  11533075.893 -22698189.694
10 0 60321  37800.00000  0  -2120867.586  10763473.068 -22990596.513
10 0 60321  38700.00000  0  -4898430.436  10191468.326 -22834739.936
10 0 60321  39600.00000  0  -7662955.165   9828751.846 -22234031.790
10 0 60321  40500.00000  0 -10345069.677   9674733.366 -21200553.774
10 0 60321  41400.00000  0 -12877626.687   9716675.770 -19754791.675
10 0 60321  42300.00000  0 -15198269.243   9930356.888 -17925207.272
10 0 60321  43200.00000  0 -17251796.215  10281228.446 -15747658.376
10 0 60321  44100.00000  0 -18992231.000  10726021.041 -13264680.041
10 0 60321  45000.00000  0 -20384510.344  11214724.526 -10524642.352
10 0 60321  45900.00000  0 -21405725.803  11692859.039  -7580802.111
10 0 60321  46800.00000  0 -22045869.142  12103940.885  -4490267.306
10 0 60321  47700.00000  0 -22308054.400  12392038.368  -1312894.478
10 0 60321  48600.00000  0 -22208210.147  12504311.129   1889860.048
10 0 60321  49500.00000  0 -21774256.918  12393427.944   5056113.760
10 0 60321  50400.00000  0 -21044806.609  12019761.614   8124734.880
10 0 60321  51300.00000  0 -20067438.849  11353270.885  11036501.445
10 0 60321  52200.00000  0 -18896626.165  10374992.196  13735222.020
10 0 60321  53100.00000  0 -17591394.614   9078078.441  16168798.335
10 0 60321  54000.00000  0 -16212815.903   7468342.040  18290211.338
10 0 60321  54900.00000  0 -14821433.734   5564279.283  20058413.545
10 0 60321  55800.00000  0 -13474730.341   3396572.472  21439112.055
10 0 60321  56700.00000  0 -12224736.670   1007088.784  22405428.333
10 0 60321  57600.00000  0 -11115884.288  -1552585.331  22938422.722
10 0 60321  58500.00000  0 -10183187.893  -4223017.502  23027473.574
10 0 60321  59400.00000  0  -9450833.680  -6939136.010  22670503.024
10 0 60321  60300.00000  0  -8931233.214  -9632681.366  21874043.734
10 0 60321  61200.00000  0  -8624583.445 -12234804.735  20653143.330
10 0 60321  62100.00000  0  -8518953.044 -14678707.333  19031105.981
10 0 60321  63000.00000  0  -8590894.154 -16902212.354  17039073.349
10 0 60321  63900.00000  0  -8806555.721 -18850163.218  14715450.229
10 0 60321  64800.00000  0  -9123253.920 -20476547.287  12105183.402
10 0 60321  65700.00000  0  -9491435.812 -21746254.701   9258905.445
10 0 60321  66600.00000  0  -9856953.372 -22636396.985   6231958.581
10 0 60321  67500.00000  0 -10163552.092 -23137127.502   3083316.797
10 0 60321  68400.00000  0 -10355468.418 -23251926.599   -125572.733
10 0 60321  69300.00000  0 -10380022.785 -22997337.921  -3332005.286
10 0 60321  70200.00000  0 -10190096.019 -22402165.424  -6473265.823
10 0 60321  71100.00000  0  -9746381.343 -21506164.267  -9487881.094
10 0 60321  72000.00000  0  -9019311.749 -20358281.938 -12316849.359
10 0 60321  72900.00000  0  -7990578.370 -19014525.082 -14904820.815
10 0 60321  73800.00000  0  -6654173.169 -17535544.121 -17201202.997
10 0 60321  74700.00000  0  -5016908.683 -15984040.820 -19161167.228
10 0 60321  75600.00000  0  -3098392.330 -14422110.620 -20746534.800
10 0 60321  76500.00000  0   -930456.355 -12908634.221 -21926524.689
10 0 60321  77400.00000  0   1443932.881 -11496830.491 -22678348.040
10 0 60321  78300.00000  0   3972238.802 -10232074.421 -22987638.487
10 0 60321  79200.00000  0   6594324.447  -9150072.006 -22848711.198
10 0 60321  80100.00000  0   9244744.819  -8275467.660 -22264647.401
10 0 60321  81000.00000  0  11855264.208  -7620940.459 -21247204.897
10 0 60321  81900.00000  0  14357492.432  -7186824.660 -19816558.585
10 0 60321  82800.00000  0  16685530.229  -6961266.676 -18000878.333
10 0 60321  83700.00000  0  18778513.831  -6920908.406 -15835754.519
10 0 60321  84600.00000  0  20582953.903  -7032065.291 -13363484.209
10 0 60321  85500.00000  0  22054773.722  -7252345.761 -10632233.287
10 0 60322      0.00000  0  23160964.095  -7532641.834  -7695091.812
10 0 60322    900.00000  0  23880788.799  -7819406.169  -4609041.429
10 0 60322   1800.00000  0  24206493.671  -8057117.905  -1433854.937
10 0 60322   2700.00000  0  24143492.539  -8190833.982   1769051.084
10 0 60322   3600.00000  0  23710024.557  -8168720.024   4937789.271
10 0 60322   4500.00000  0  22936299.580  -7944454.223   8011178.612
10 0 60322   5400.00000  0  21863168.283  -7479405.268  10929904.541
10 0 60322   6300.00000  0  20540372.688  -6744494.768  13637641.453
10 0 60322   7200.00000  0  19024450.104  -5721665.886  16082117.888
10 0 60322   8100.00000  0  17376376.517  -4404897.838  18216105.823
10 0 60322   9000.00000  0  15659045.834  -2800723.941  19998316.906
10 0 60322   9900.00000  0  13934688.323   -928229.444  21394189.912
10 0 60322  10800.00000  0  12262333.395   1181472.126  22376555.468
10 0 60322  11700.00000  0  10695420.459   3486264.827  22926165.915
10 0 60322  12600.00000  0   9279655.946   5934519.786  23032080.117
10 0 60322  13500.00000  0   8051204.662   8466989.603  22691895.172
10 0 60322  14400.00000  0   7035290.917  11019032.548  21911819.236
10 0 60322  15300.00000  0   6245268.175  13523078.043  20706582.120
10 0 60322  16200.00000  0   5682197.311  15911233.424  19099182.974
10 0 60322  17100.00000  0   5334953.411  18117925.409  17120477.202
10 0 60322  18000.00000  0   5180858.113  20082467.484  14808607.797
10 0 60322  18900.00000  0   5186813.179  21751445.733  12208289.503
10 0 60322  19800.00000  0   5310890.008  23080822.190   9369957.416
10 0 60322  20700.00000  0   5504308.226  24037665.883   6348795.021
10 0 60322  21600.00000  0   5713720.487  24601436.330   3203659.746
10 0 60322  22500.00000  0   5883706.877  24764762.738     -4072.985
10 0 60322  23400.00000  0   5959370.393  24533683.848  -3211723.682
10 0 60322  24300.00000  0   5888921.550  23927336.244  -6356555.273
10 0 60322  25200.00000  0   5626139.998  22977102.929  -9377025.481
10 0 60322  26100.00000  0   5132603.961  21725258.203 -12214017.829
10 0 60322  27000.00000  0   4379590.182  20223166.658 -14812024.370
10 0 60322  27900.00000  0   3349561.256  18529113.798 -17120254.350
10 0 60322  28800.00000  0   2037173.727  16705862.384 -19093644.794
10 0 60322  29700.00000  0    449763.377  14818039.896 -20693751.590
10 0 60322  30600.00000  0  -1392713.241  12929469.652 -21889502.744
10 0 60322  31500.00000  0  -3458279.317  11100560.145 -22657798.893
10 0 60322  32400.00000  0  -5704053.691   9385863.524 -22983949.986
10 0 60322  33300.00000  0  -8077833.770   7831906.314 -22861940.885
10 0 60322  34200.00000  0 -10520078.139   6475382.651 -22294522.484
10 0 60322  35100.00000  0 -12966203.885   5341784.010 -21293128.724
10 0 60322  36000.00000  0 -15349101.379   4444520.611 -19877623.410
10 0 60322  36900.00000  0 -17601761.095   3784567.568 -18075884.046
99